Regional Weather Roundup
Issued by NWS

Home | Current Version | Previous Version | Text Only | Print | Product List | Glossary Off
Versions: 1 2 3 4 5 6 7 8 9 10 11 12 13 14 15 16 17 18 19 20 21 22 23 24 25 26 27 28

000
ASUS45 KGTF 261210
RWRMT
MONTANA HOURLY WEATHER ROUNDUP
NATIONAL WEATHER SERVICE GREAT FALLS MT
600 AM MDT SUN APR 26 2015

NOTE: "FAIR" INDICATES FEW OR NO CLOUDS BELOW 12000 FEET WITH NO
SIGNIFICANT WEATHER AND/OR OBSTRUCTIONS TO VISIBILITY.

MTZ001>007-043-261300-
WEST OF THE DIVIDE

CITY           SKY/WX    TMP DP  RH WIND       PRES   REMARKS
KALISPELL      CLOUDY    41  27  57 N13       29.99R
MISSOULA       LGT RAIN  38  36  92 NW8       30.01R
BUTTE          LGT SNOW  32  31  96 W6        29.90R FOG     WCI  26
DEER LODGE       N/A     34  30  86 NW8       30.00R WCI  27
EUREKA           N/A     30  28  93 CALM      30.05R
HAMILTON         N/A     37  34  87 N6        29.98R
LIBBY            N/A     36  34  93 CALM      30.05R
$$

MTZ008-052>055-261300-
SOUTHWEST MONTANA

CITY           SKY/WX    TMP DP  RH WIND       PRES   REMARKS
BOZEMAN        CLOUDY    41  34  76 W9        29.87R
DILLON         CLOUDY    36  32  85 NE15      29.85R WCI  27
$$

MTZ009-010-012-014-046-048-049-054-261300-
EAST SLOPES AND CENTRAL MONTANA

CITY           SKY/WX    TMP DP  RH WIND       PRES   REMARKS
CUT BANK       CLOUDY    30  23  75 NW8       30.07S WCI  22
GREAT FALLS    CLOUDY    30  25  81 N14       30.07R WCI  19
MALMSTROM AFB  CLOUDY    31  26  81 N12       30.08R WCI  22
HELENA         LGT SNOW  35  29  78 NW15      29.99R WCI  25
$$

MTZ011-013-016-021-045-047-050-051-261300-
NORTH CENTRAL MONTANA

CITY           SKY/WX    TMP DP  RH WIND       PRES   REMARKS
HAVRE          CLOUDY    34  26  72 NW10      30.09R WCI  26
LEWISTOWN      CLOUDY    32  29  88 N5        30.03R
CHINOOK          N/A     36  27  69 W10       30.08R WCI  28
FORT BENTON      N/A     34  27  75 N6        30.11R WCI  29
$$

MTZ017>020-022>042-056>058-061-062-261300-
EASTERN PLAINS

CITY           SKY/WX    TMP DP  RH WIND       PRES   REMARKS
BAKER          FOG       38  37  97 N3        29.99R VSB 1/4
BILLINGS       CLOUDY    38  35  89 NE7       29.95R
GLASGOW        CLOUDY    38  33  82 NW9       30.02R WCI  31
JORDAN           N/A     38  34  85 N17       30.01R WCI  28
LIVINGSTON     LGT RAIN  39  35  86 E17       29.89R WCI  30
MILES CITY     FOG       31  31 100 CALM      29.98R VSB 1/4
SIDNEY         PTCLDY    39  36  87 NW8       30.00F
WOLF POINT     CLOUDY    38  35  89 W5        30.03R
BIG TIMBER       N/A     37  36  93 NE6       29.95R
FORSYTH          N/A     32  32 100 CALM      29.98R VSB 0
PLENTYWOOD       N/A     37  34  87 W12       30.01R WCI  30
POPLAR           N/A     39  37  93 W3        30.03R
$$

REGIONAL REPORTS...DAKOTAS

CITY           SKY/WX    TMP DP  RH WIND       PRES   REMARKS
WILLISTON      CLOUDY    39  36  89 NW10      30.01R
MINOT          CLOUDY    47  44  90 S8        29.98R FOG
DICKINSON      CLOUDY    42  40  92 W6        29.98R
BEACH          CLOUDY    34  34 100 N8        30.02R FOG     WCI  27
CROSBY           N/A     37  37 100 NW12      30.01R WCI  30
WATFORD CITY   CLOUDY    36  36 100 NW10      29.98R WCI  28
BISMARCK       LGT RAIN  46  46 100 E7        30.01R FOG
GRAND FORKS    PTCLDY    36  28  73 SE6       30.08R WCI  31
FARGO          CLEAR     40  21  46 SE7       30.09R
BUFFALO SD       N/A     43  40  89 NE5       29.90R
RAPID CITY     CLOUDY    43  41  93 N17       29.91R
$$

REGIONAL REPORTS...WYOMING/IDAHO/WASHINGTON

CITY           SKY/WX    TMP DP  RH WIND       PRES   REMARKS
GILLETTE       CLOUDY    40  35  83 NE14      29.91S
SHERIDAN       CLOUDY    38  34  85 N6        29.93R
BUFFALO WY     CLOUDY    38  32  79 NE5       29.93R
CODY           CLOUDY    37  32  81 N15       29.88R WCI  28
YELLOWSTONE LA   N/A     31  27  85 E5        29.84R
IDAHO FALLS    LGT RAIN  37  35  92 S16       29.82R WCI  28
SALMON         CLOUDY    37  36  93 CALM      29.91R
BOISE          CLEAR     36  28  73 NW9       30.00R WCI  29
SPOKANE        FOG       33  33 100 CALM      30.05R VSB 1/4
$$

REGIONAL REPORTS...ALBERTA

CITY           SKY/WX    TMP DP  RH WIND       PRES   REMARKS
EDMONTON       CLEAR     21  18  86 S3        30.10S
CALGARY        PTCLDY    23  19  86 W2        30.08R
LETHBRIDGE     MOCLDY    30  25  80 NW13      30.10R WCI  20
MEDICINE HAT   CLOUDY    32  30  93 W10       30.10R WCI  24
$$

REGIONAL REPORTS...SASKATCHEWAN

CITY           SKY/WX    TMP DP  RH WIND       PRES   REMARKS
SWIFT CURRENT  CLOUDY    28  28 100 NW18G26   29.98R WCI  16
REGINA         CLOUDY    34  32  93 W16       29.94R WCI  23
SASKATOON      LGT SNOW  32  32 100 NW15      29.94R VSB 3/4 WCI  22
$$



USA.gov is the U.S. government's official web portal to all federal, state and local government web resources and services.